Beaufort, SC

1:53 AM EDT on April 24, 2018 (GMT -0400)
Beaufort

Weather History for KARW - October, 2011

Change the Weather History Date:

Monday, October 31, 2011

  Actual Average (KNBC) Record (KNBC)
Temperature  
Mean Temperature 58 °F -  
Max Temperature 64 °F 72 °F 86 °F (1961)
Min Temperature 53 °F 55 °F 37 °F (1963)
Degree Days  
Heating Degree Days 6    
Growing Degree Days 8 (Base 50)    
Moisture  
Dew Point 48 °F    
Average Humidity 70    
Maximum Humidity 77    
Minimum Humidity 63    
Precipitation  
Precipitation 0.00 in - - ()
Sea Level Pressure  
Sea Level Pressure 30.18 in    
Wind  
Wind Speed 12 mph (NNE)    
Max Wind Speed 15 mph    
Max Gust Speed 22 mph    
Visibility 10 miles    
Events      
Averages and records for this station are not official NWS values.
T = Trace of Precipitation, MM = Missing Value Source: NWS Daily Summary

Daily Weather History Graph

Daily Weather History Graph

Search for Another Location

Airport or City:

Astronomy

Oct. 31, 2011 Rise Set
Actual Time 7:38 AM EDT 6:33 PM EDT
Civil Twilight 7:13 AM EDT 6:58 PM EDT
Nautical Twilight 6:44 AM EDT 7:27 PM EDT
Astronomical Twilight 6:15 AM EDT 7:56 PM EDT
Moon 12:37 PM EDT (10/31) 11:13 PM EDT (10/31)
Length of Visible Light 11h 45m
Length of Day
10h 54m
Waxing Crescent, 29% of the Moon is Illuminated
Oct 31
Waxing Crescent
Nov 2
First Quarter
Nov 10
Full
Nov 18
Last Quarter
Nov 25
New

Hourly Weather History & Observations

Time (EDT) Temp. Dew Point Humidity Pressure Visibility Wind Dir Wind Speed Gust Speed Precip Events Conditions
12:15 AM 55.4 °F 42.8 °F 63% 30.26 in 10.0 mi NE 11.5 mph - N/A   Clear
12:35 AM 55.4 °F 42.8 °F 63% 30.25 in 10.0 mi NE 12.7 mph - N/A   Clear
12:55 AM 55.4 °F 44.6 °F 67% 30.25 in 10.0 mi NNE 15.0 mph - N/A   Clear
1:15 AM 55.4 °F 44.6 °F 67% 30.25 in 10.0 mi NE 12.7 mph - N/A   Clear
1:35 AM 55.4 °F 44.6 °F 67% 30.24 in 10.0 mi NE 12.7 mph - N/A   Clear
1:55 AM 55.4 °F 44.6 °F 67% 30.24 in 10.0 mi NE 11.5 mph - N/A   Clear
2:15 AM 55.4 °F 44.6 °F 67% 30.23 in 10.0 mi NE 13.8 mph - N/A   Clear
2:35 AM 55.4 °F 44.6 °F 67% 30.23 in 10.0 mi NE 13.8 mph - N/A   Clear
2:55 AM 55.4 °F 44.6 °F 67% 30.23 in 10.0 mi NE 12.7 mph - N/A   Clear
3:15 AM 55.4 °F 44.6 °F 67% 30.22 in 10.0 mi NE 12.7 mph - N/A   Clear
3:55 AM 53.6 °F 44.6 °F 72% 30.21 in 10.0 mi NE 12.7 mph - N/A   Clear
4:15 AM 53.6 °F 44.6 °F 72% 30.21 in 10.0 mi NE 12.7 mph - N/A   Clear
4:35 AM 53.6 °F 44.6 °F 72% 30.20 in 10.0 mi NE 13.8 mph - N/A   Scattered Clouds
4:55 AM 53.6 °F 44.6 °F 72% 30.21 in 10.0 mi NE 12.7 mph - N/A   Mostly Cloudy
5:15 AM 53.6 °F 44.6 °F 72% 30.21 in 10.0 mi NE 13.8 mph - N/A   Overcast
5:35 AM 53.6 °F 44.6 °F 72% 30.21 in 10.0 mi NNE 15.0 mph 21.9 mph N/A   Mostly Cloudy
5:55 AM 53.6 °F 44.6 °F 72% 30.21 in 10.0 mi NNE 13.8 mph - N/A   Mostly Cloudy
6:15 AM 53.6 °F 44.6 °F 72% 30.21 in 10.0 mi NE 15.0 mph - N/A   Overcast
6:35 AM 53.6 °F 44.6 °F 72% 30.20 in 10.0 mi NE 12.7 mph 18.4 mph N/A   Scattered Clouds
6:55 AM 53.6 °F 44.6 °F 72% 30.19 in 10.0 mi NE 13.8 mph 18.4 mph N/A   Scattered Clouds
7:15 AM 53.6 °F 44.6 °F 72% 30.18 in 10.0 mi NE 13.8 mph 19.6 mph N/A   Mostly Cloudy
7:55 AM 53.6 °F 46.4 °F 77% 30.19 in 10.0 mi NE 12.7 mph - N/A   Overcast
8:15 AM 53.6 °F 46.4 °F 77% 30.19 in 10.0 mi NE 11.5 mph - N/A   Overcast
8:35 AM 53.6 °F 46.4 °F 77% 30.19 in 10.0 mi NE 11.5 mph - N/A   Overcast
8:55 AM 53.6 °F 46.4 °F 77% 30.20 in 10.0 mi NE 12.7 mph 18.4 mph N/A   Overcast
9:15 AM 53.6 °F 46.4 °F 77% 30.20 in 10.0 mi NNE 13.8 mph 17.3 mph N/A   Overcast
9:35 AM 53.6 °F 46.4 °F 77% 30.21 in 10.0 mi NNE 10.4 mph - N/A   Overcast
9:55 AM 55.4 °F 46.4 °F 72% 30.21 in 10.0 mi NNE 11.5 mph - N/A   Overcast
10:15 AM 55.4 °F 48.2 °F 77% 30.20 in 10.0 mi NE 12.7 mph - N/A   Overcast
10:35 AM 55.4 °F 48.2 °F 77% 30.19 in 10.0 mi NNE 13.8 mph - N/A   Mostly Cloudy
10:55 AM 57.2 °F 50.0 °F 77% 30.18 in 10.0 mi NNE 11.5 mph - N/A   Scattered Clouds
11:15 AM 57.2 °F 50.0 °F 77% 30.19 in 10.0 mi NNE 11.5 mph - N/A   Mostly Cloudy
11:35 AM 59.0 °F 50.0 °F 72% 30.19 in 10.0 mi North 12.7 mph - N/A   Overcast
11:55 AM 59.0 °F 50.0 °F 72% 30.18 in 10.0 mi North 9.2 mph - N/A   Overcast
12:15 PM 59.0 °F 50.0 °F 72% 30.18 in 10.0 mi North 10.4 mph - N/A   Overcast
12:35 PM 59.0 °F 50.0 °F 72% 30.17 in 10.0 mi North 10.4 mph - N/A   Overcast
12:55 PM 60.8 °F 50.0 °F 68% 30.17 in 10.0 mi NNE 8.1 mph - N/A   Overcast
1:15 PM 60.8 °F 50.0 °F 68% 30.16 in 10.0 mi North 9.2 mph - N/A   Overcast
1:35 PM 62.6 °F 51.8 °F 68% 30.14 in 10.0 mi NNE 9.2 mph - N/A   Overcast
1:55 PM 62.6 °F 51.8 °F 68% 30.13 in 10.0 mi NNE 11.5 mph - N/A   Overcast
2:15 PM 62.6 °F 51.8 °F 68% 30.12 in 10.0 mi North 11.5 mph - N/A   Overcast
2:35 PM 62.6 °F 51.8 °F 68% 30.11 in 10.0 mi North 11.5 mph - N/A   Overcast
2:55 PM 62.6 °F 51.8 °F 68% 30.11 in 10.0 mi North 10.4 mph - N/A   Overcast
3:15 PM 64.4 °F 51.8 °F 64% 30.11 in 10.0 mi North 11.5 mph - N/A   Overcast
3:35 PM 64.4 °F 51.8 °F 64% 30.10 in 10.0 mi North 9.2 mph - N/A   Overcast
3:55 PM 64.4 °F 51.8 °F 64% 30.09 in 10.0 mi North 9.2 mph - N/A   Overcast
4:15 PM 64.4 °F 51.8 °F 64% 30.10 in 10.0 mi NNW 10.4 mph - N/A   Overcast
4:35 PM 64.4 °F 51.8 °F 64% 30.10 in 10.0 mi NNW 9.2 mph - N/A   Overcast
4:55 PM 64.4 °F 51.8 °F 64% 30.11 in 10.0 mi NNW 12.7 mph - N/A   Overcast
5:15 PM 62.6 °F 50.0 °F 63% 30.11 in 10.0 mi NNW 9.2 mph - N/A   Overcast
5:35 PM 60.8 °F 50.0 °F 68% 30.11 in 10.0 mi NNW 13.8 mph - N/A   Mostly Cloudy
5:55 PM 60.8 °F 50.0 °F 68% 30.11 in 10.0 mi North 9.2 mph - N/A   Mostly Cloudy
6:15 PM 60.8 °F 48.2 °F 63% 30.11 in 10.0 mi North 10.4 mph - N/A   Overcast
6:55 PM 59.0 °F 50.0 °F 72% 30.12 in 10.0 mi North 8.1 mph 17.3 mph N/A   Overcast
7:15 PM 59.0 °F 50.0 °F 72% 30.13 in 10.0 mi North 11.5 mph 18.4 mph N/A   Overcast
7:35 PM 57.2 °F 50.0 °F 77% 30.14 in 10.0 mi North 12.7 mph 21.9 mph N/A   Overcast
7:55 PM 57.2 °F 50.0 °F 77% 30.14 in 10.0 mi North 8.1 mph - N/A   Overcast
8:15 PM 57.2 °F 50.0 °F 77% 30.14 in 10.0 mi North 8.1 mph - N/A   Overcast
8:35 PM 55.4 °F 50.0 °F 82% 30.14 in 10.0 mi North 8.1 mph - N/A   Overcast
8:55 PM 55.4 °F 50.0 °F 82% 30.14 in 10.0 mi North 6.9 mph - N/A   Overcast
9:15 PM 55.4 °F 50.0 °F 82% 30.15 in 10.0 mi North 8.1 mph - N/A   Scattered Clouds
9:35 PM 55.4 °F 48.2 °F 77% 30.16 in 10.0 mi North 8.1 mph - N/A   Mostly Cloudy
9:55 PM 55.4 °F 48.2 °F 77% 30.15 in 10.0 mi North 9.2 mph - N/A   Scattered Clouds
10:15 PM 53.6 °F 46.4 °F 77% 30.16 in 10.0 mi North 10.4 mph - N/A   Clear
10:35 PM 53.6 °F 46.4 °F 77% 30.16 in 10.0 mi North 8.1 mph - N/A   Clear
10:55 PM 53.6 °F 46.4 °F 77% 30.15 in 10.0 mi North 11.5 mph 16.1 mph N/A   Clear
11:15 PM 53.6 °F 46.4 °F 77% 30.16 in 10.0 mi North 9.2 mph - N/A   Clear
11:35 PM 51.8 °F 46.4 °F 82% 30.16 in 10.0 mi North 8.1 mph 16.1 mph N/A   Clear
11:55 PM 51.8 °F 46.4 °F 82% 30.17 in 10.0 mi North 9.2 mph - N/A   Clear